Regional Weather Roundup
Issued by NWS

Home | Current Version | Previous Version | Graphics & Text | Print | Product List | Glossary On
Versions: 1 2 3 4 5 6 7 8 9 10 11 12 13 14 15 16 17 18 19 20 21 22 23 24 25 26 27 28 29 30 31 32 33 34 35 36 37 38 39 40 41 42 43 44 45 46 47 48 49 50
764
ASUS44 KLIX 291501
RWRLA
LOUISIANA WEATHER ROUNDUP
NATIONAL WEATHER SERVICE NEW ORLEANS LA
1000 AM CDT TUE JUL 29 2014

NOTE: "FAIR" INDICATES FEW OR NO CLOUDS BELOW 12,000 FEET WITH NO
      SIGNIFICANT WEATHER AND/OR OBSTRUCTIONS TO VISIBILITY.
      SKY/WX - SKY CONDITION AND SIGNIFICANT WEATHER.
      TMP - AIR TEMPERATURE.    DP   - DEWPOINT TEMPERATURE.
      RH  - RELATIVE HUMIDITY.  PRES - PRESSURE.
      HX  - HEAT INDEX.         WCI  - WIND CHILL INDEX.

*  THESE STATIONS ARE NOT NWS OR FAA STATIONS AND ARE NOT UNDER
   NWS QUALITY CONTROL.

LAZ040-048-061>063-065-066-069-291600-
SOUTHEAST LOUISIANA

CITY           SKY/WX    TMP DP  RH WIND       PRES   REMARKS
N.O. AUDUBON   NOT AVBL
N.O. INTL ARPT CLOUDY    85  69  58 NE10      30.06F
N.O. LAKEFRONT CLOUDY    81  68  64 NE7       30.07S
N.O. DOWNTOWN* PTSUNNY   82  64  54 NE3       30.07S
SLIDELL        CLOUDY    80  69  69 NE5       30.07R
BATON ROUGE    PTSUNNY   81  68  64 VRB5      30.08S
BOOTHVILLE     CLOUDY    83  71  67 NE6       30.06R
BELLE CHASSE   CLOUDY    83  67  58 NE7       30.06S
BOGALUSA*      FAIR      82  66  59 NE5       30.10R
GALLIANO*      NOT AVBL
NEW ROADS*     PTSUNNY   80  70  71 N6        30.09S
GONZALES*      CLOUDY    79  71  76 CALM      30.08R
HAMMOND*       PTSUNNY   82  66  57 NE3       30.10R
HOUMA*         CLOUDY    82  70  65 N7        30.06S
PORT FOURCHON* SUNNY     84  72  65 N10       30.07S

$$

LAZ041-044-053-054-291600-
SOUTHWEST LOUISIANA

CITY           SKY/WX    TMP DP  RH WIND       PRES   REMARKS
LAKE CHARLES   PTSUNNY   83  73  72 E7        30.08S
LAFAYETTE      NOT AVBL
PATTERSON      CLOUDY    81  75  83 N5        30.11R
SALT POINT       N/A     82  76  81 VRB3      30.07R
NEW IBERIA     PTSUNNY   82  73  74 NE5       30.08S
CHENAULT AIRPK NOT AVBL

$$

LAZ027-028-291600-
CENTRAL LOUISIANA

CITY           SKY/WX    TMP DP  RH WIND       PRES   REMARKS
FORT POLK      PTSUNNY   80  69  69 E5        30.11R
ALEXANDRIA INT MOSUNNY   83  65  54 NE6       30.09S
ALEXANDRIA     MOSUNNY   82  69  64 VRB3      30.11R

$$

LAZ001-002-291600-
NORTHWEST LOUISIANA

CITY           SKY/WX    TMP DP  RH WIND       PRES   REMARKS
SHREVEPORT     MOSUNNY   85  68  56 CALM      30.12S
BARKSDALE AFB  SUNNY     82  67  60 N5        30.12S
DTN SHREVEPORT SUNNY     81  67  62 N5        30.12S

$$

LAZ014-016-291600-
NORTHEAST LOUISIANA

CITY           SKY/WX    TMP DP  RH WIND       PRES   REMARKS
MONROE         SUNNY     80  67  64 N6        30.12R
TALLULAH       SUNNY     82  68  62 VRB3      30.10S

$$




USA.gov is the U.S. government's official web portal to all federal, state and local government web resources and services.